Left ArrowRight Arrow

Hourly Observations for May 18, 2015

Temp ( °F °C ) Dew Point ( °F °C ) Humidity (%) Winds ( mph kmh ) Pressure ( in mb ) Visibility ( mi km ) Precip ( " mm )
12:15 am 00:15 Clear 55 13 50 10 82 82 NNW 18 30 30.06 1018 10 16 0.00 0.00
12:35 am 00:35 Clear 55 13 48 9 77 77 N 17 28 30.06 1018 10 16 0.00 0.00
12:55 am 00:55 Clear 54 12 46 8 77 77 N 16 26 30.09 1019 10 16 0.00 0.00
1:15 am 01:15 Clear 54 12 46 8 77 77 NNW 20 31 30.12 1020 10 16 0.00 0.00
1:35 am 01:35 Clear 52 11 45 7 77 77 NNW 17 28 30.12 1020 10 16 0.00 0.00
1:55 am 01:55 Clear 52 11 45 7 77 77 NNW 15 24 30.12 1020 10 16 0.00 0.00
2:15 am 02:15 Clear 52 11 43 6 72 72 NNW 18 30 30.15 1021 10 16 0.00 0.00
2:35 am 02:35 Clear 48 9 41 5 76 76 NNW 15 24 30.18 1022 10 16 0.00 0.00
2:55 am 02:55 Clear 48 9 39 4 71 71 NNW 13 20 30.18 1022 10 16 0.00 0.00
3:15 am 03:15 Clear 48 9 41 5 76 76 NNW 8 13 30.18 1022 10 16 0.00 0.00
3:35 am 03:35 Clear 48 9 39 4 71 71 NNW 16 26 30.21 1023 10 16 0.00 0.00
3:55 am 03:55 Clear 46 8 37 3 71 71 NNW 12 19 30.21 1023 10 16 0.00 0.00
4:15 am 04:15 Clear 46 8 37 3 71 71 NNW 14 22 30.24 1024 10 16 0.00 0.00
4:35 am 04:35 Clear 46 8 37 3 71 71 NNW 13 20 30.24 1024 10 16 0.00 0.00
4:55 am 04:55 Mostly Clear 45 7 37 3 76 76 NNW 13 20 30.24 1024 10 16 0.00 0.00
5:15 am 05:15 Mostly Clear 45 7 37 3 76 76 NNW 14 22 30.27 1025 10 16 0.00 0.00
5:35 am 05:35 Mostly Cloudy 45 7 37 3 76 76 NNW 17 28 30.27 1025 10 16 0.00 0.00
5:55 am 05:55 Mostly Cloudy 45 7 37 3 76 76 NNW 14 22 30.27 1025 10 16 0.00 0.00
6:15 am 06:15 Mostly Cloudy 45 7 37 3 76 76 NNW 10 17 30.27 1025 10 16 0.00 0.00
6:35 am 06:35 Partly Cloudy 45 7 37 3 76 76 N 13 20 30.33 1027 10 16 0.00 0.00
6:55 am 06:55 Mostly Cloudy 45 7 37 3 76 76 N 13 20 30.33 1027 10 16 0.00 0.00
7:15 am 07:15 Partly Cloudy 45 7 37 3 76 76 N 13 20 30.33 1027 10 16 0.00 0.00
7:35 am 07:35 Mostly Cloudy 46 8 37 3 71 71 NNW 14 22 30.30 1026 10 16 0.00 0.00
7:55 am 07:55 Cloudy 46 8 37 3 71 71 NNW 16 26 30.30 1026 10 16 0.00 0.00
8:15 am 08:15 Cloudy 46 8 36 2 66 66 NNW 16 26 30.30 1026 10 16 0.00 0.00
8:35 am 08:35 Cloudy 46 8 37 3 71 71 NNW 15 24 30.30 1026 10 16 0.00 0.00
8:55 am 08:55 Cloudy 48 9 37 3 66 66 N 20 31 30.30 1026 10 16 0.00 0.00
9:15 am 09:15 Cloudy 48 9 37 3 66 66 N 22 35 30.33 1027 10 16 0.00 0.00
9:35 am 09:35 Partly Cloudy 48 9 37 3 66 66 N 21 33 30.33 1027 10 16 0.00 0.00
9:55 am 09:55 Partly Cloudy 48 9 37 3 66 66 N 18 30 30.33 1027 10 16 0.00 0.00
10:15 am 10:15 Partly Cloudy 52 11 37 3 58 58 NNW 16 26 30.33 1027 10 16 0.00 0.00
10:35 am 10:35 Cloudy 52 11 39 4 62 62 NNW 13 20 30.33 1027 10 16 0.00 0.00
10:55 am 10:55 Mostly Cloudy 52 11 39 4 62 62 NNW 14 22 30.36 1028 10 16 0.00 0.00
11:15 am 11:15 Partly Cloudy 54 12 39 4 58 58 NW 15 24 30.33 1027 10 16 0.00 0.00
11:35 am 11:35 Mostly Cloudy 54 12 39 4 58 58 NNW 14 22 30.33 1027 10 16 0.00 0.00
11:55 am 11:55 Partly Cloudy 55 13 39 4 55 55 NNW 12 19 30.33 1027 10 16 0.00 0.00
12:15 pm 12:15 Partly Cloudy 55 13 39 4 55 55 NNW 15 24 30.33 1027 10 16 0.00 0.00
12:35 pm 12:35 Sunny 57 14 39 4 51 51 N 14 22 30.33 1027 10 16 0.00 0.00
12:55 pm 12:55 Sunny 57 14 39 4 51 51 N 14 22 30.33 1027 10 16 0.00 0.00
1:15 pm 13:15 Sunny 57 14 39 4 51 51 NNW 14 22 30.33 1027 10 16 0.00 0.00
1:35 pm 13:35 Sunny 59 15 39 4 48 48 NNW 16 26 30.33 1027 10 16 0.00 0.00
1:55 pm 13:55 Sunny 61 16 39 4 45 45 N 17 28 30.27 1025 10 16 0.00 0.00
2:15 pm 14:15 Sunny 61 16 41 5 48 48 NNW 17 28 30.27 1025 10 16 0.00 0.00
2:35 pm 14:35 Sunny 61 16 39 4 45 45 N 15 24 30.27 1025 10 16 0.00 0.00
2:55 pm 14:55 Sunny 61 16 39 4 45 45 NW 14 22 30.27 1025 10 16 0.00 0.00
3:15 pm 15:15 Sunny 63 17 41 5 45 45 N 14 22 30.27 1025 10 16 0.00 0.00
3:35 pm 15:35 Sunny 63 17 39 4 42 42 N 14 22 30.27 1025 10 16 0.00 0.00
3:55 pm 15:55 Mostly Cloudy 61 16 39 4 45 45 NNW 10 17 30.27 1025 10 16 0.00 0.00
4:15 pm 16:15 Cloudy 61 16 39 4 45 45 N 13 20 30.27 1025 10 16 0.00 0.00
4:35 pm 16:35 Cloudy 61 16 39 4 45 45 N 14 22 30.27 1025 10 16 0.00 0.00
4:55 pm 16:55 Mostly Cloudy 61 16 39 4 45 45 N 10 17 30.27 1025 10 16 0.00 0.00
5:15 pm 17:15 Partly Cloudy 63 17 39 4 42 42 NNE 14 22 30.24 1024 10 16 0.00 0.00
5:35 pm 17:35 Mostly Sunny 63 17 41 5 45 45 N 12 19 30.24 1024 10 16 0.00 0.00
5:55 pm 17:55 Sunny 63 17 39 4 42 42 NNE 12 19 30.27 1025 10 16 0.00 0.00
6:15 pm 18:15 Sunny 63 17 39 4 42 42 N 13 20 30.24 1024 10 16 0.00 0.00
6:35 pm 18:35 Sunny 61 16 39 4 45 45 NNE 8 13 30.27 1025 10 16 0.00 0.00
6:55 pm 18:55 Sunny 61 16 39 4 45 45 NE 9 15 30.27 1025 10 16 0.00 0.00
7:15 pm 19:15 Sunny 61 16 39 4 45 45 N 12 19 30.24 1024 10 16 0.00 0.00
7:35 pm 19:35 Sunny 61 16 39 4 45 45 NE 10 17 30.27 1025 10 16 0.00 0.00
7:55 pm 19:55 Sunny 59 15 39 4 48 48 NNE 9 15 30.27 1025 10 16 0.00 0.00
8:15 pm 20:15 Sunny 57 14 39 4 51 51 NNE 10 17 30.30 1026 10 16 0.00 0.00
8:35 pm 20:35 Sunny 55 13 39 4 55 55 NNE 9 15 30.30 1026 10 16 0.00 0.00
8:55 pm 20:55 Clear 54 12 39 4 58 58 NNE 7 11 30.30 1026 10 16 0.00 0.00
9:15 pm 21:15 Clear 52 11 39 4 62 62 NNE 7 11 30.33 1027 10 16 0.00 0.00
9:35 pm 21:35 Clear 52 11 39 4 62 62 NE 7 11 30.33 1027 10 16 0.00 0.00
9:55 pm 21:55 Clear 50 10 39 4 67 67 NE 7 11 30.33 1027 10 16 0.00 0.00
10:15 pm 22:15 Clear 48 9 39 4 71 71 NNE 6 9 30.36 1028 10 16 0.00 0.00
10:35 pm 22:35 Clear 48 9 39 4 71 71 NE 6 9 30.36 1028 10 16 0.00 0.00
10:55 pm 22:55 Clear 46 8 39 4 76 76 ENE 8 13 30.36 1028 10 16 0.00 0.00
11:15 pm 23:15 Clear 46 8 39 4 76 76 NE 9 15 30.36 1028 10 16 0.00 0.00
11:35 pm 23:35 Clear 46 8 39 4 76 76 ENE 7 11 30.36 1028 10 16 0.00 0.00
11:55 pm 23:55 Clear 46 8 37 3 71 71 ENE 7 11 30.36 1028 10 16 0.00 0.00

Powered by Vaisala Xweather